Montgomery, NY

7:34 AM EST on December 08, 2016 (GMT -0500)
Orange County

Weather History for KMGJ - October, 2012

Change the Weather History Date:

Saturday, October 13, 2012

  Actual Average (KPOU) Record (KPOU)
Temperature  
Mean Temperature 40 °F 52 °F  
Max Temperature 53 °F 64 °F 84 °F (1954)
Min Temperature 26 °F 40 °F 24 °F (1987)
Degree Days  
Heating Degree Days 26 13  
Month to date heating degree days 144  
Since 1 July heating degree days 284  
Cooling Degree Days 0 0  
Month to date cooling degree days 0  
Year to date cooling degree days 668  
Moisture  
Dew Point 27 °F    
Average Humidity 64    
Maximum Humidity 92    
Minimum Humidity 31    
Precipitation  
Precipitation 0.00 in 0.15 in 1.25 in (2005)
Month to date precipitation 1.94  
Year to date precipitation 37.00  
Sea Level Pressure  
Sea Level Pressure 30.43 in    
Wind  
Wind Speed 3 mph (SW)    
Max Wind Speed 10 mph    
Max Gust Speed 16 mph    
Visibility 10 miles    
Events      
T = Trace of Precipitation, MM = Missing Value Source: NWS Daily Summary

Daily Weather History Graph

Daily Weather History Graph

Search for Another Location

Airport or City:

Trip Planner

Search our weather history database for the weather conditions in past years. The results will help you decide how hot, cold, wet, or windy it might be!

Date:

Astronomy

Oct. 13, 2012 Rise Set
Actual Time 7:07 AM EDT 6:18 PM EDT
Civil Twilight 6:39 AM EDT 6:46 PM EDT
Nautical Twilight 6:07 AM EDT 7:18 PM EDT
Astronomical Twilight 5:35 AM EDT 7:50 PM EDT
Moon 4:53 AM EDT (10/13) 5:01 PM EDT (10/13)
Length of Visible Light 12h 06m
Length of Day
11h 11m
Waning Crescent, 5% of the Moon is Illuminated
Oct 13
Waning Crescent
Oct 15
New
Oct 21
First Quarter
Oct 29
Full
Nov 6
Last Quarter

Hourly Weather History & Observations

Time (EDT) Temp. Windchill Dew Point Humidity Pressure Visibility Wind Dir Wind Speed Gust Speed Precip Events Conditions
12:54 AM 30.0 °F - 25.0 °F 82% 30.44 in 10.0 mi Calm Calm - N/A   Clear
1:54 AM 28.9 °F - 27.0 °F 92% 30.45 in 10.0 mi Calm Calm - N/A   Clear
2:54 AM 28.0 °F - 25.0 °F 88% 30.45 in 10.0 mi Calm Calm - N/A   Clear
3:54 AM 27.0 °F - 25.0 °F 92% 30.47 in 10.0 mi Calm Calm - 0.00 in   Clear
4:54 AM 28.0 °F - 25.0 °F 88% 30.47 in 10.0 mi Calm Calm - N/A   Clear
5:54 AM 27.0 °F 23.0 °F 24.1 °F 89% 30.49 in 10.0 mi WSW 3.5 mph - N/A   Clear
6:54 AM 26.1 °F 20.5 °F 23.0 °F 88% 30.49 in 10.0 mi South 4.6 mph - 0.00 in   Clear
7:54 AM 28.9 °F 25.2 °F 26.1 °F 89% 30.51 in 10.0 mi SSW 3.5 mph - N/A   Clear
8:54 AM 34.0 °F 29.8 °F 28.9 °F 82% 30.51 in 10.0 mi SW 4.6 mph - N/A   Clear
9:11 AM 37.4 °F 32.1 °F 30.2 °F 75% 30.50 in 10.0 mi SSW 6.9 mph - N/A   Partly Cloudy
9:54 AM 39.9 °F 37.8 °F 30.0 °F 68% 30.51 in 10.0 mi South 3.5 mph - N/A   Clear
10:54 AM 46.0 °F 43.1 °F 27.0 °F 47% 30.51 in 10.0 mi SW 5.8 mph - N/A   Clear
11:54 AM 48.9 °F - 24.1 °F 38% 30.49 in 10.0 mi Variable 5.8 mph - N/A   Clear
12:54 PM 50.0 °F - 23.0 °F 35% 30.45 in 10.0 mi SSW 8.1 mph - N/A   Clear
1:54 PM 51.1 °F - 21.9 °F 32% 30.41 in 10.0 mi SSW 8.1 mph - N/A   Clear
2:54 PM 53.1 °F - 23.0 °F 31% 30.39 in 10.0 mi West 10.4 mph 16.1 mph N/A   Clear
3:54 PM 53.1 °F - 24.1 °F 32% 30.37 in 10.0 mi WSW 6.9 mph - N/A   Clear
4:54 PM 52.0 °F - 24.1 °F 34% 30.35 in 10.0 mi SW 6.9 mph - N/A   Clear
5:54 PM 50.0 °F - 27.0 °F 41% 30.36 in 10.0 mi SW 4.6 mph - N/A   Clear
6:54 PM 50.0 °F - 27.0 °F 41% 30.34 in 10.0 mi South 5.8 mph - N/A   Partly Cloudy
8:54 PM 44.1 °F - 33.1 °F 65% 30.34 in 10.0 mi Calm Calm - N/A   Clear
10:54 PM 39.9 °F - 32.0 °F 73% 30.30 in 10.0 mi Calm Calm - N/A   Clear
11:54 PM 42.1 °F 40.2 °F 35.1 °F 76% 30.29 in 10.0 mi SW 3.5 mph - N/A   Clear